EW9467 Weather Reports


Display with metric or nautical units.
time (UTC)temp
F
wind
direction
speed
MPH
gust
MPH
rain 1hr
in
rain 24hr
in
rain mn
in
humidity
%
barometer
mb
20260508220203 68 269 0.0 0.0 0.00 0.00 0.00 71 1012.0
20260508215701 68 267 0.0 2.0 0.00 0.00 0.00 69 1011.9
20260508215202 69 217 0.0 2.0 0.00 0.00 0.00 68 1011.8
20260508214659 69 186 0.0 0.0 0.00 0.00 0.00 70 1011.7
20260508214159 69 186 0.0 0.0 0.00 0.00 0.00 68 1011.7
20260508213659 69 186 0.0 0.0 0.00 0.00 0.00 69 1011.8
20260508213159 69 133 0.0 0.0 0.00 0.00 0.00 68 1011.7
20260508212659 69 132 0.0 0.0 0.00 0.00 0.00 67 1011.6
20260508212159 69 141 0.0 0.0 0.00 0.00 0.00 66 1011.7
20260508211200 69 209 0.0 0.0 0.00 0.00 0.00 66 1012.1
20260508210700 69 209 0.0 2.0 0.00 0.00 0.00 65 1012.1
20260508210158 69 209 0.0 2.0 0.00 0.00 0.00 66 1012.2
20260508205659 69 128 0.0 1.0 0.00 0.00 0.00 65 1012.2
20260508205200 69 128 0.0 1.0 0.00 0.00 0.00 65 1012.0
20260508204659 70 121 0.0 2.0 0.00 0.00 0.00 64 1012.0
20260508204159 70 155 0.0 3.0 0.00 0.00 0.00 63 1012.1
20260508203658 70 188 0.0 3.0 0.00 0.00 0.00 62 1012.2
20260508203158 70 227 0.0 0.0 0.00 0.00 0.00 62 1012.0
20260508202658 70 228 0.0 1.0 0.00 0.00 0.00 63 1012.1
20260508202158 70 199 0.0 1.0 0.00 0.00 0.00 63 1012.0
20260508201658 70 178 0.0 0.0 0.00 0.00 0.00 60 1011.9
20260508201158 70 144 0.0 2.0 0.00 0.00 0.00 60 1011.9
20260508200656 70 206 0.0 2.0 0.00 0.00 0.00 59 1012.1
20260508195657 71 123 0.0 3.0 0.00 0.01 0.00 58 1012.3
20260508195157 71 197 0.0 3.0 0.00 0.01 0.00 57 1012.3
20260508194654 71 218 0.0 3.0 0.00 0.01 0.00 58 1012.1
20260508194151 71 36 0.0 0.0 0.00 0.01 0.00 55 1012.2
20260508193149 71 150 0.0 5.0 0.00 0.01 0.00 57 1012.4
20260508192649 71 169 0.0 3.0 0.00 0.01 0.00 55 1012.5
20260508192148 71 122 0.0 3.0 0.00 0.01 0.00 55 1012.6
20260508191648 71 80 0.0 0.0 0.00 0.01 0.00 56 1012.6
20260508191149 71 137 0.0 0.0 0.00 0.01 0.00 57 1012.7
20260508190648 71 145 0.0 4.0 0.00 0.01 0.00 58 1012.8
20260508190148 71 138 0.0 4.0 0.00 0.01 0.00 57 1012.8
20260508185649 71 202 0.0 4.0 0.00 0.01 0.00 56 1012.8
20260508184649 72 182 0.0 4.0 0.00 0.01 0.00 53 1012.8
20260508184147 71 224 0.0 2.0 0.00 0.01 0.00 56 1013.0
20260508183647 71 81 1.0 5.0 0.00 0.01 0.00 55 1013.0
20260508183147 71 226 1.0 5.0 0.00 0.01 0.00 55 1013.2
20260508182646 71 307 1.0 5.0 0.00 0.01 0.00 53 1013.3
20260508181146 72 55 0.0 5.0 0.00 0.01 0.00 54 1013.3
20260508180646 71 140 1.0 5.0 0.00 0.01 0.00 55 1013.4
20260508180146 71 232 1.0 5.0 0.00 0.01 0.00 54 1013.6
20260508175646 71 261 0.0 5.0 0.00 0.01 0.00 54 1013.6
20260508174644 70 278 0.0 4.0 0.00 0.01 0.00 54 1013.6
20260508173644 70 82 1.0 4.0 0.00 0.01 0.00 56 1013.6
20260508173144 70 140 1.0 4.0 0.00 0.01 0.00 55 1013.7
20260508172645 70 144 1.0 6.0 0.00 0.01 0.00 56 1013.9
20260508172143 70 111 1.0 6.0 0.00 0.01 0.00 56 1013.9
20260508171644 70 261 1.0 4.0 0.00 0.01 0.00 57 1014.1
20260508171144 70 206 1.0 4.0 0.00 0.01 0.00 56 1014.2
20260508170644 70 98 0.0 1.0 0.00 0.01 0.00 57 1014.2
20260508170144 70 126 0.0 1.0 0.00 0.01 0.00 56 1014.2
20260508165642 69 43 0.0 0.0 0.00 0.01 0.00 58 1014.4
20260508165142 69 58 0.0 3.0 0.00 0.01 0.00 60 1014.2
20260508164642 69 202 0.0 3.0 0.00 0.01 0.00 56 1014.3
20260508163140 69 56 0.0 0.0 0.00 0.01 0.00 56 1014.5
20260508162140 69 213 1.0 4.0 0.00 0.01 0.00 56 1014.9
20260508161640 69 142 1.0 7.0 0.00 0.01 0.00 57 1015.3
20260508161139 69 96 2.0 7.0 0.00 0.01 0.00 62 1015.1
20260508155641 69 90 0.0 3.0 0.00 0.01 0.00 63 1015.1
20260508155140 68 63 1.0 4.0 0.00 0.01 0.00 61 1015.0
20260508154639 69 96 0.0 4.0 0.00 0.01 0.00 58 1015.2
20260508154140 68 78 0.0 2.0 0.00 0.01 0.00 60 1015.2
20260508153641 67 99 0.0 3.0 0.00 0.01 0.00 62 1015.4
20260508153139 67 71 0.0 4.0 0.00 0.01 0.00 62 1015.4
20260508152640 67 181 0.0 4.0 0.00 0.01 0.00 61 1015.6
20260508152140 67 111 1.0 7.0 0.00 0.01 0.00 60 1015.6
20260508151140 67 113 1.0 7.0 0.00 0.02 0.00 68 1015.4
20260508150641 66 23 1.0 7.0 0.00 0.02 0.00 63 1015.4
20260508150140 66 69 1.0 4.0 0.00 0.12 0.00 64 1015.4
20260508145639 66 92 1.0 4.0 0.00 0.22 0.00 70 1015.4
20260508145140 66 35 1.0 4.0 0.00 0.28 0.00 66 1015.4
20260508144136 66 129 0.0 3.0 0.00 0.32 0.00 69 1015.4
20260508143139 66 140 0.0 0.0 0.00 0.32 0.00 70 1015.7
20260508142637 65 114 0.0 1.0 0.00 0.32 0.00 67 1015.7
20260508142137 65 92 0.0 1.0 0.00 0.32 0.00 67 1015.8
20260508141635 65 198 0.0 0.0 0.00 0.32 0.00 66 1015.7
20260508140635 64 68 0.0 0.0 0.00 0.32 0.00 71 1015.6
20260508140136 64 348 0.0 0.0 0.00 0.32 0.00 70 1015.6
20260508135636 64 355 0.0 0.0 0.00 0.32 0.00 69 1015.6
20260508135136 64 101 0.0 0.0 0.00 0.33 0.00 68 1015.6
20260508134135 64 76 0.0 0.0 0.00 0.33 0.00 69 1015.7
20260508133636 64 41 0.0 0.0 0.00 0.33 0.00 71 1015.7
20260508133135 64 289 0.0 0.0 0.00 0.33 0.00 75 1015.7
20260508132136 63 284 0.0 0.0 0.00 0.33 0.00 75 1015.6
20260508131135 62 98 0.0 0.0 0.00 0.33 0.00 81 1015.6
20260508130633 61 98 0.0 0.0 0.00 0.34 0.00 84 1015.6
20260508130134 60 98 0.0 0.0 0.00 0.35 0.00 86 1015.4
20260508125133 59 348 0.0 0.0 0.00 0.38 0.00 86 1015.3
20260508124633 59 332 0.0 0.0 0.00 0.40 0.00 88 1015.3
20260508124133 58 331 0.0 0.0 0.00 0.44 0.00 88 1015.3
20260508123133 57 332 0.0 0.0 0.00 0.45 0.00 91 1015.3
20260508122632 57 331 0.0 0.0 0.00 0.45 0.00 91 1015.3
20260508122133 56 332 0.0 0.0 0.00 0.45 0.00 93 1015.3
20260508121631 56 332 0.0 0.0 0.00 0.46 0.00 93 1015.3
20260508121132 56 331 0.0 0.0 0.00 0.46 0.00 94 1015.2
20260508120632 56 331 0.0 0.0 0.00 0.47 0.00 95 1015.1
20260508120131 55 332 0.0 0.0 0.00 0.49 0.00 95 1015.1
20260508115632 55 332 0.0 0.0 0.00 0.54 0.00 95 1015.1
20260508115131 54 331 0.0 0.0 0.00 0.60 0.00 95 1015.1
20260508114631 54 332 0.0 0.0 0.00 0.84 0.00 94 1015.1
20260508114132 53 332 0.0 0.0 0.00 1.04 0.00 94 1014.8
20260508113629 53 331 0.0 0.0 0.00 1.32 0.00 94 1014.7
20260508113130 53 331 0.0 0.0 0.00 1.48 0.00 94 1014.6
20260508112627 53 332 0.0 0.0 0.00 1.70 0.00 94 1014.4
20260508112128 53 331 0.0 0.0 0.00 1.86 0.00 94 1014.3
20260508111627 53 332 0.0 0.0 0.00 1.92 0.00 94 1014.1
20260508111127 53 332 0.0 0.0 0.00 1.93 0.00 94 1014.1
20260508110627 53 332 0.0 0.0 0.00 1.95 0.00 94 1014.0
20260508110127 53 331 0.0 0.0 0.00 1.95 0.00 94 1013.8
20260508105627 53 331 0.0 0.0 0.00 1.95 0.00 94 1013.6
20260508105128 53 332 0.0 0.0 0.00 1.96 0.00 94 1013.7
20260508104625 53 331 0.0 0.0 0.00 1.96 0.00 94 1013.7
20260508104126 53 332 0.0 0.0 0.00 1.96 0.00 94 1013.5
20260508103623 53 332 0.0 0.0 0.00 1.97 0.00 94 1013.3
20260508103124 53 331 0.0 0.0 0.00 1.97 0.00 94 1013.3
20260508102622 53 331 0.0 0.0 0.00 1.97 0.00 94 1013.2
20260508102124 53 332 0.0 0.0 0.00 1.97 0.00 94 1013.2
20260508101123 53 332 0.0 0.0 0.00 1.97 0.00 94 1012.8
20260508100121 53 331 0.0 0.0 0.00 1.97 0.00 93 1013.0
20260508095620 53 332 0.0 0.0 0.00 1.97 0.00 93 1012.9
20260508094621 53 332 0.0 0.0 0.00 1.97 0.00 93 1012.9
20260508094120 53 331 0.0 0.0 0.00 1.97 0.00 93 1012.8
20260508093620 53 332 0.0 0.0 0.00 1.97 0.00 93 1012.7
20260508093121 53 332 0.0 0.0 0.00 1.99 0.00 93 1012.7
20260508092622 53 332 0.0 0.0 0.00 2.01 0.00 93 1012.7
20260508092122 54 331 0.0 0.0 0.00 2.02 0.00 93 1012.6
20260508091618 54 332 0.0 0.0 0.00 2.04 0.00 93 1012.6
20260508091118 54 332 0.0 0.0 0.00 2.05 0.00 93 1012.6
20260508090119 54 332 0.0 0.0 0.00 2.10 0.00 93 1012.6
20260508085619 54 332 0.0 0.0 0.00 2.13 0.00 93 1012.6
20260508085118 55 332 0.0 0.0 0.00 2.13 0.00 93 1012.5
20260508084618 55 331 0.0 0.0 0.00 2.14 0.00 93 1012.4
20260508083117 55 331 0.0 0.0 0.00 2.15 0.00 93 1012.4
20260508082616 55 332 0.0 0.0 0.00 2.15 0.00 93 1012.4
20260508082116 55 332 0.0 0.0 0.00 2.15 0.00 93 1012.5
20260508081616 55 331 0.0 0.0 0.00 2.15 0.00 93 1012.5
20260508081117 55 332 0.0 0.0 0.00 2.15 0.00 93 1012.4
20260508080616 55 332 0.0 0.0 0.00 2.15 0.00 93 1012.3
20260508080118 55 332 0.0 0.0 0.00 2.15 0.00 93 1012.1
20260508075614 55 331 0.0 0.0 0.00 2.15 0.00 93 1012.1
20260508075114 55 332 0.0 0.0 0.00 2.15 0.00 93 1012.0
20260508074614 55 332 0.0 0.0 0.00 2.15 0.00 93 1012.0
20260508074114 55 331 0.0 0.0 0.00 2.15 0.00 93 1012.2
20260508073615 55 332 0.0 0.0 0.00 2.16 0.00 93 1012.3
20260508073113 56 332 0.0 0.0 0.00 2.16 0.00 93 1012.2
20260508072614 56 332 0.0 0.0 0.00 2.16 0.00 93 1012.3
20260508072112 56 331 0.0 0.0 0.00 2.16 0.00 93 1012.2
20260508071612 56 332 0.0 0.0 0.00 2.16 0.00 93 1012.2
20260508071113 56 332 0.0 0.0 0.00 2.16 0.00 93 1012.3
20260508070612 56 331 0.0 0.0 0.00 2.16 0.00 93 1012.5
20260508070112 56 332 0.0 0.0 0.00 2.16 0.00 93 1012.5
20260508065112 56 331 0.0 0.0 0.00 2.16 0.00 93 1012.6
20260508064611 56 331 0.0 0.0 0.00 2.16 0.00 92 1012.8
20260508064112 56 332 0.0 0.0 0.00 2.18 0.00 92 1012.5
20260508063613 56 332 0.0 0.0 0.00 2.19 0.00 92 1012.7
20260508063110 57 332 0.0 0.0 0.00 2.21 0.00 92 1012.8
20260508062609 57 332 0.0 0.0 0.00 2.22 0.00 92 1012.8
20260508062111 57 332 0.0 0.0 0.00 2.23 0.00 92 1012.9
20260508061610 57 331 0.0 0.0 0.00 2.24 0.00 92 1012.8
20260508061110 57 331 0.0 0.0 0.00 2.25 0.00 92 1012.9
20260508060610 57 332 0.0 0.0 0.00 2.26 0.00 92 1012.9
20260508060111 57 332 0.0 0.0 0.00 2.26 0.00 92 1012.8
20260508055611 57 331 0.0 0.0 0.00 2.26 0.00 92 1013.0
20260508054608 57 332 0.0 0.0 0.00 2.28 0.00 92 1012.6
20260508054108 57 331 0.0 0.0 0.00 2.29 0.00 91 1012.9
20260508053608 57 331 0.0 0.0 0.00 2.30 0.00 91 1012.9
20260508052605 58 331 0.0 0.0 0.00 2.32 0.00 91 1013.0
20260508052106 58 332 0.0 0.0 0.00 2.33 0.00 91 1012.9
20260508051604 58 332 0.0 0.0 0.00 2.35 0.00 90 1013.1
20260508051104 58 332 0.0 0.0 0.00 2.39 0.00 90 1013.0
20260508050604 58 331 0.0 0.0 0.00 2.42 0.00 90 1013.0
20260508045605 59 331 0.0 0.0 0.00 2.46 0.00 89 1013.1
20260508045103 59 332 0.0 0.0 0.00 2.48 0.00 89 1013.1
20260508044601 59 332 0.0 0.0 0.00 2.49 0.00 89 1013.1
20260508044101 59 331 0.0 0.0 0.00 2.51 0.00 89 1012.9
20260508043602 60 332 0.0 0.0 0.00 2.52 0.00 88 1013.0
20260508043101 60 332 0.0 0.0 0.00 2.53 0.00 88 1012.8
20260508042602 60 332 0.0 0.0 0.00 2.53 0.00 88 1012.8
20260508042101 60 331 0.0 0.0 0.00 2.54 0.00 87 1012.7
20260508041602 61 332 0.0 0.0 0.00 2.54 0.00 86 1012.6
20260508041102 61 332 0.0 0.0 0.00 2.54 0.00 86 1012.8
20260508040602 61 332 0.0 0.0 0.00 2.54 0.00 85 1013.0
20260508035559 62 332 0.0 0.0 0.00 2.55 2.55 84 1012.9
20260508035100 62 332 0.0 0.0 0.00 2.55 2.55 84 1012.8
20260508034600 62 331 0.0 0.0 0.00 2.56 2.55 83 1012.9
20260508033600 63 332 0.0 0.0 0.00 2.56 2.55 82 1012.8
20260508033058 63 331 0.0 0.0 0.00 2.56 2.55 82 1012.8
20260508032557 63 332 0.0 0.0 0.00 2.56 2.55 82 1012.7
20260508032058 63 332 0.0 0.0 0.00 2.56 2.55 83 1012.7
20260508031057 62 321 0.0 0.0 0.00 2.56 2.55 84 1012.5
20260508030557 62 321 0.0 0.0 0.00 2.59 2.55 85 1012.5
20260508025558 61 321 0.0 0.0 0.00 2.70 2.55 87 1012.4
20260508025057 61 321 0.0 0.0 0.00 2.70 2.55 87 1012.4
20260508024557 62 321 0.0 0.0 0.00 2.70 2.55 87 1012.4
20260508023055 62 321 0.0 0.0 0.00 2.74 2.55 86 1012.1
20260508022555 62 321 0.0 0.0 0.00 2.84 2.55 85 1012.3
20260508022054 63 321 0.0 0.0 0.00 2.84 2.55 85 1012.3
20260508021055 63 321 0.0 0.0 0.00 2.84 2.55 84 1012.3
20260508020555 64 321 0.0 0.0 0.00 2.84 2.55 83 1012.3
20260508015555 64 321 0.0 0.0 0.00 2.84 2.55 82 1012.1
20260508015053 64 321 0.0 0.0 0.00 2.85 2.55 82 1012.2
20260508014554 64 321 0.0 0.0 0.00 2.85 2.55 82 1012.1
20260508014053 64 321 0.0 0.0 0.00 2.86 2.55 81 1012.1
20260508013553 65 321 0.0 0.0 0.00 2.86 2.55 81 1012.0
20260508013053 65 321 0.0 0.0 0.00 2.86 2.55 81 1011.9
20260508012552 65 321 0.0 0.0 0.00 2.86 2.55 80 1011.8
20260508012050 66 321 0.0 0.0 0.00 2.86 2.55 80 1011.8
20260508011551 66 321 0.0 0.0 0.00 2.86 2.55 80 1011.7
20260508011051 66 321 0.0 0.0 0.00 2.86 2.55 78 1011.9
20260508010552 66 321 0.0 0.0 0.00 2.86 2.55 77 1011.8
20260508010050 67 322 0.0 0.0 0.00 2.86 2.55 78 1011.7
20260508005051 67 318 0.0 0.0 0.00 2.86 2.55 79 1011.3
20260508004549 67 319 0.0 0.0 0.00 2.86 2.55 80 1011.3
20260508004048 67 318 0.0 0.0 0.00 2.86 2.55 78 1011.2
20260508003549 67 319 0.0 0.0 0.00 2.86 2.55 79 1011.2
20260508003050 68 318 0.0 0.0 0.00 2.86 2.55 80 1011.0
20260508002549 68 328 0.0 0.0 0.00 2.86 2.55 81 1011.0
20260508002048 68 327 0.0 0.0 0.00 2.86 2.55 80 1011.0
20260508001549 68 328 0.0 0.0 0.00 2.86 2.55 80 1011.0
20260508001049 69 327 0.0 0.0 0.00 2.86 2.55 79 1010.8
20260508000548 69 328 0.0 0.0 0.00 2.86 2.55 79 1010.7
20260507235548 70 327 0.0 0.0 0.00 2.86 2.55 77 1010.6
20260507235048 70 327 0.0 0.0 0.00 2.86 2.55 76 1010.6
20260507234549 71 326 0.0 3.0 0.00 2.86 2.55 77 1010.5
20260507234050 71 327 0.0 3.0 0.00 2.86 2.55 75 1010.5
20260507233548 71 325 1.0 2.0 0.00 2.86 2.55 74 1010.5
20260507233050 72 326 1.0 2.0 0.00 2.86 2.55 73 1010.4
20260507232549 72 314 1.0 4.0 0.00 2.86 2.55 73 1010.3
20260507232048 73 288 1.0 4.0 0.00 2.86 2.55 70 1010.2
20260507231549 73 292 1.0 3.0 0.00 2.86 2.55 69 1010.2
20260507231048 74 330 1.0 3.0 0.00 2.86 2.55 69 1010.2
20260507230548 74 326 1.0 3.0 0.00 2.86 2.55 70 1010.2
20260507230048 74 311 1.0 7.0 0.00 2.86 2.55 69 1010.2
20260507225548 74 315 1.0 7.0 0.00 2.86 2.55 68 1010.2
20260507225049 74 252 1.0 6.0 0.00 2.86 2.55 67 1010.1
20260507224548 74 324 1.0 6.0 0.00 2.86 2.55 67 1010.2
20260507222547 75 315 1.0 6.0 0.00 2.86 2.55 67 1010.0
20260507222047 75 302 1.0 6.0 0.00 2.86 2.55 68 1009.9